FW8606 Weather Reports


time (UTC)temp
C
wind
direction
speed
KPH
gust
KPH
rain 1hr
cm
rain 24hr
cm
rain mn
cm
humidity
%
barometer
mb
20260906113010 22 319 0.0 0.0 0.00 0.00 0.00 89 1014.2
20260906112505 22 313 0.0 0.0 0.00 0.00 0.00 90 1014.2
20260906112002 22 317 0.0 0.0 0.00 0.00 0.00 90 1013.8
20260906111501 22 318 0.0 0.0 0.00 0.00 0.00 90 1014.2
20260906110955 22 324 0.0 0.0 0.00 0.00 0.00 90 1013.8
20260906110450 22 304 0.0 1.6 0.00 0.00 0.00 90 1013.8
20260906105949 22 332 0.0 0.0 0.00 0.00 0.00 90 1013.8
20260906105445 22 334 0.0 0.0 0.00 0.00 0.00 90 1013.5
20260906104941 22 334 0.0 0.0 0.00 0.00 0.00 90 1013.8
20260906104440 22 334 0.0 0.0 0.00 0.00 0.00 90 1013.8
20260906103939 22 334 0.0 0.0 0.00 0.00 0.00 90 1013.8
20260906103437 22 334 0.0 0.0 0.00 0.00 0.00 90 1013.5
20260906102933 22 334 0.0 0.0 0.00 0.00 0.00 90 1013.5
20260906102432 22 334 0.0 0.0 0.00 0.00 0.00 90 1013.5
20260906101927 22 335 0.0 0.0 0.00 0.00 0.00 90 1013.5
20260906101423 22 331 0.0 0.0 0.00 0.00 0.00 89 1013.5
20260906100918 22 331 0.0 0.0 0.00 0.00 0.00 89 1013.5
20260906100418 22 330 0.0 0.0 0.00 0.00 0.00 89 1013.0
20260906095912 22 330 0.0 0.0 0.00 0.00 0.00 89 1013.0
20260906095408 22 331 0.0 0.0 0.00 0.00 0.00 89 1013.0
20260906094902 22 331 0.0 0.0 0.00 0.00 0.00 89 1013.0
20260906094357 22 329 0.0 0.0 0.00 0.00 0.00 89 1013.0
20260906093853 22 328 0.0 0.0 0.00 0.00 0.00 89 1013.0
20260906093349 22 329 0.0 0.0 0.00 0.00 0.00 89 1012.7
20260906092849 22 336 0.0 0.0 0.00 0.00 0.00 89 1013.0
20260906092343 22 336 0.0 0.0 0.00 0.00 0.00 90 1013.0
20260906091839 22 327 0.0 0.0 0.00 0.00 0.00 90 1013.0
20260906091335 22 327 0.0 0.0 0.00 0.00 0.00 90 1013.0
20260906090832 22 328 0.0 0.0 0.00 0.00 0.00 89 1013.0
20260906090330 22 328 0.0 0.0 0.00 0.00 0.00 89 1013.0
20260906085831 22 328 0.0 0.0 0.00 0.00 0.00 89 1012.7
20260906085330 22 328 0.0 0.0 0.00 0.00 0.00 89 1012.7
20260906084825 23 328 0.0 0.0 0.00 0.00 0.00 89 1012.7
20260906084324 23 328 0.0 0.0 0.00 0.00 0.00 89 1012.7
20260906083819 23 328 0.0 0.0 0.00 0.00 0.00 88 1012.7
20260906083315 23 328 0.0 0.0 0.00 0.00 0.00 88 1012.4
20260906082809 23 328 0.0 0.0 0.00 0.00 0.00 88 1012.7
20260906082306 -17 0.0 0.0 0.00 0.00 0.00 1012.7
20260906081800 -17 0.0 0.0 0.00 0.00 0.00 1013.0
20260906081255 -17 0.0 0.0 0.00 0.00 0.00 1012.7
20260906080751 -17 0.0 0.0 0.00 0.00 0.00 1012.7
20260906080248 -17 0.0 0.0 0.00 0.00 0.00 1012.7
20260906075741 -17 0.0 0.0 0.00 0.00 0.00 1012.7
20260906075236 -17 0.0 0.0 0.00 0.00 0.00 1012.7
20260906074731 23 327 0.0 0.0 0.00 0.00 0.00 86 1012.7
20260906074231 23 327 0.0 0.0 0.00 0.00 0.00 86 1012.7
20260906073730 23 327 0.0 0.0 0.00 0.00 0.00 86 1012.7
20260906073225 -17 0.0 0.0 0.00 0.00 0.00 1012.7
20260906072721 -17 0.0 0.0 0.00 0.00 0.00 1012.7
20260906072216 -17 0.0 0.0 0.00 0.00 0.00 1012.7
20260906071712 23 327 0.0 0.0 0.00 0.00 0.00 83 1013.0
20260906071212 23 327 0.0 0.0 0.00 0.00 0.00 83 1012.7
20260906070709 24 327 0.0 0.0 0.00 0.00 0.00 83 1012.7
20260906070204 24 327 0.0 0.0 0.00 0.00 0.00 83 1012.7
20260906065704 23 327 0.0 0.0 0.00 0.00 0.00 84 1013.0
20260906065159 23 327 0.0 0.0 0.00 0.00 0.00 84 1013.0
20260906064655 -17 0.0 0.0 0.00 0.00 0.00 1013.0
20260906064150 -17 0.0 0.0 0.00 0.00 0.00 1012.7
20260906063645 -17 0.0 0.0 0.00 0.00 0.00 1013.0
20260906063141 24 328 0.0 0.0 0.00 0.00 0.00 81 1012.7
20260906062636 24 328 0.0 0.0 0.00 0.00 0.00 81 1013.0
20260906062135 24 328 0.0 0.0 0.00 0.00 0.00 80 1013.0
20260906061632 24 328 0.0 0.0 0.00 0.00 0.00 80 1013.0
20260906061131 25 328 0.0 0.0 0.00 0.00 0.00 79 1013.0
20260906060628 25 328 0.0 0.0 0.00 0.00 0.00 79 1013.0
20260906060125 25 328 0.0 0.0 0.00 0.00 0.00 78 1013.0
20260906055620 25 328 0.0 0.0 0.00 0.00 0.00 78 1013.0
20260906055115 25 328 0.0 0.0 0.00 0.00 0.00 77 1013.0
20260906054610 25 328 0.0 0.0 0.00 0.00 0.00 77 1013.0
20260906054106 25 328 0.0 0.0 0.00 0.00 0.00 77 1013.0
20260906053602 25 328 0.0 0.0 0.00 0.00 0.00 77 1013.0
20260906053057 25 327 0.0 0.0 0.00 0.00 0.00 76 1013.0
20260906052552 25 331 0.0 0.0 0.00 0.00 0.00 76 1013.0
20260906052049 25 330 0.0 0.0 0.00 0.00 0.00 76 1013.0
20260906051545 25 330 0.0 0.0 0.00 0.00 0.00 76 1013.5
20260906051040 26 323 0.0 0.0 0.00 0.00 0.00 75 1013.5
20260906050535 26 323 0.0 0.0 0.00 0.00 0.00 74 1013.0
20260906050030 26 323 0.0 0.0 0.00 0.00 0.00 74 1013.5
20260906045528 26 323 0.0 0.0 0.00 0.00 0.00 74 1013.8
20260906045024 26 325 0.0 0.0 0.00 0.00 0.00 74 1013.5
20260906044520 -17 0.0 0.0 0.00 0.00 0.00 1013.5
20260906044015 -17 0.0 0.0 0.00 0.00 0.00 1013.0
20260906043511 -17 0.0 0.0 0.00 0.00 0.00 1013.5
20260906043007 27 320 0.0 0.0 0.00 0.00 0.00 71 1013.0
20260906042505 27 320 0.0 0.0 0.00 0.00 0.00 71 1013.0
20260906042005 27 352 0.0 0.0 0.00 0.00 0.00 71 1013.5
20260906041502 27 352 0.0 0.0 0.00 0.00 0.00 71 1013.5
20260906041001 27 4 1.6 1.6 0.00 0.00 0.00 71 1013.5
20260906040456 26 319 0.0 0.0 0.00 0.00 0.00 74 1013.5
20260906035951 26 315 0.0 0.0 0.00 0.00 0.00 74 1013.5
20260906035447 26 2 1.6 1.6 0.00 0.00 0.00 75 1013.8
20260906034942 26 326 0.0 0.0 0.00 0.00 0.00 76 1013.0
20260906034437 26 326 0.0 0.0 0.00 0.00 0.00 76 1013.0
20260906033933 26 327 0.0 0.0 0.00 0.00 0.00 76 1013.0
20260906033432 26 326 0.0 0.0 0.00 0.00 0.00 75 1013.0
20260906032928 26 338 0.0 0.0 0.00 0.00 0.00 75 1013.0
20260906032425 26 257 4.8 4.8 0.00 0.00 0.00 75 1013.0
20260906031919 26 10 1.6 1.6 0.00 0.00 0.00 75 1013.5
20260906031414 26 341 0.0 0.0 0.00 0.00 0.00 78 1013.0
20260906030909 26 354 0.0 0.0 0.00 0.00 0.00 77 1013.0
20260906030404 26 307 0.0 0.0 0.00 0.00 0.00 77 1012.7
20260906025858 26 307 0.0 0.0 0.00 0.00 0.00 77 1012.7
20260906025353 26 308 0.0 0.0 0.00 0.00 0.00 77 1012.7
20260906024852 26 308 0.0 0.0 0.00 0.00 0.00 77 1012.7
20260906024351 26 308 0.0 0.0 0.00 0.00 0.00 77 1012.7
20260906023846 26 308 0.0 0.0 0.00 0.00 0.00 76 1012.4
20260906023343 26 308 0.0 0.0 0.00 0.00 0.00 75 1012.4
20260906022837 26 308 0.0 0.0 0.00 0.00 0.00 75 1012.4
20260906022332 26 307 0.0 0.0 0.00 0.00 0.00 74 1012.4
20260906021828 26 308 0.0 0.0 0.00 0.00 0.00 73 1012.4
20260906021327 27 307 0.0 0.0 0.00 0.00 0.00 72 1012.4
20260906020822 27 307 0.0 0.0 0.00 0.00 0.00 72 1012.0
20260906020321 27 307 0.0 0.0 0.00 0.00 0.00 71 1012.0
20260906015816 27 306 0.0 0.0 0.00 0.00 0.00 70 1012.0
20260906015314 27 309 0.0 0.0 0.00 0.00 0.00 71 1011.7
20260906014809 27 307 0.0 0.0 0.00 0.00 0.00 70 1011.7
20260906014304 27 311 0.0 1.6 0.00 0.00 0.00 70 1011.7
20260906013800 27 312 0.0 0.0 0.00 0.00 0.00 68 1012.0
20260906013255 27 312 0.0 0.0 0.00 0.00 0.00 67 1012.0
20260906012750 27 303 0.0 0.0 0.00 0.00 0.00 66 1012.0
20260906012245 28 320 0.0 0.0 0.00 0.00 0.00 66 1011.7
20260906011741 28 334 0.0 0.0 0.00 0.00 0.00 65 1012.0
20260906011240 28 336 0.0 0.0 0.00 0.00 0.00 65 1011.7
20260906010736 28 317 0.0 0.0 0.00 0.00 0.00 65 1012.0
20260906010232 28 315 0.0 1.6 0.00 0.00 0.00 66 1012.0
20260906005727 27 84 3.2 4.8 0.00 0.00 0.00 67 1012.0
20260906005226 27 312 0.0 0.0 0.00 0.00 0.00 67 1011.7
20260906004726 27 305 0.0 0.0 0.00 0.00 0.00 67 1011.3
20260906004221 27 305 0.0 1.6 0.00 0.00 0.00 66 1011.3
20260906003716 28 305 0.0 0.0 0.00 0.00 0.00 65 1011.3
20260906003212 28 305 0.0 0.0 0.00 0.00 0.00 65 1011.3
20260906002711 28 305 0.0 0.0 0.00 0.00 0.00 64 1011.3
20260906002206 29 305 0.0 0.0 0.00 0.00 0.00 62 1011.3
20260906001702 29 300 0.0 0.0 0.00 0.00 0.00 62 1011.3
20260906001202 29 308 0.0 1.6 0.00 0.00 0.00 59 1011.7
20260906000657 29 308 0.0 0.0 0.00 0.00 0.00 60 1012.0
20260906000152 30 308 1.6 1.6 0.00 0.00 0.00 59 1012.0
20260905235651 30 304 0.0 0.0 0.00 0.00 0.00 58 1012.0
20260905235146 30 321 1.6 1.6 0.00 0.00 0.00 60 1012.0
20260905234642 30 324 1.6 1.6 0.00 0.00 0.00 59 1012.0
20260905234137 30 334 1.6 1.6 0.00 0.00 0.00 59 1012.0
20260905233632 30 331 0.0 0.0 0.00 0.00 0.00 61 1011.7
20260905233126 30 319 0.0 1.6 0.00 0.00 0.00 60 1011.7
20260905232622 30 308 4.8 4.8 0.00 0.00 0.00 58 1012.0
20260905232117 30 232 3.2 4.8 0.00 0.00 0.00 58 1012.0
20260905231617 30 301 1.6 1.6 0.00 0.00 0.00 58 1012.4
20260905231113 31 280 11.3 16.1 0.00 0.00 0.00 55 1012.4
20260905230608 32 246 11.3 22.5 0.00 0.00 0.00 52 1012.4
20260905225600 32 282 3.2 4.8 0.00 0.00 0.00 52 1012.0
20260905225056 33 347 4.8 6.4 0.00 0.00 0.00 50 1012.0
20260905224555 34 288 4.8 8.0 0.00 0.00 0.00 49 1011.7
20260905224055 35 291 1.6 1.6 0.00 0.00 0.00 46 1011.3
20260905223553 35 287 0.0 1.6 0.00 0.00 0.00 47 1011.7
20260905223049 35 287 0.0 0.0 0.00 0.00 0.00 47 1011.7
20260905222548 35 297 1.6 1.6 0.00 0.00 0.00 45 1011.3
20260905222044 35 287 0.0 1.6 0.00 0.00 0.00 44 1011.3
20260905221540 35 309 1.6 1.6 0.00 0.00 0.00 43 1011.7
20260905221036 36 324 3.2 4.8 0.00 0.00 0.00 41 1011.3
20260905220531 36 324 3.2 4.8 0.00 0.00 0.00 41 1011.3
20260905220027 36 266 3.2 4.8 0.00 0.00 0.00 39 1011.3
20260905215526 36 269 4.8 6.4 0.00 0.00 0.00 39 1011.3
20260905215023 37 315 8.0 11.3 0.00 0.00 0.00 41 1011.3
20260905214518 37 224 4.8 4.8 0.00 0.00 0.00 39 1011.3
20260905214014 37 325 3.2 4.8 0.00 0.00 0.00 39 1011.3
20260905213509 37 288 4.8 4.8 0.00 0.00 0.00 38 1011.3
20260905213004 37 249 6.4 8.0 0.00 0.00 0.00 38 1011.3
20260905212459 38 244 3.2 4.8 0.00 0.00 0.00 37 1011.3
20260905211958 37 319 0.0 1.6 0.00 0.00 0.00 37 1011.3
20260905211454 37 248 4.8 6.4 0.00 0.00 0.00 38 1011.3
20260905210949 38 293 4.8 8.0 0.00 0.00 0.00 39 1011.7
20260905210445 37 220 4.8 6.4 0.00 0.00 0.00 38 1011.7
20260905205944 37 200 4.8 6.4 0.00 0.00 0.00 39 1011.7
20260905205439 37 271 1.6 1.6 0.00 0.00 0.00 38 1012.0
20260905204937 37 272 3.2 4.8 0.00 0.00 0.00 38 1012.0
20260905204434 37 272 1.6 1.6 0.00 0.00 0.00 38 1012.0
20260905203933 37 270 3.2 4.8 0.00 0.00 0.00 39 1012.0
20260905203428 37 316 8.0 8.0 0.00 0.00 0.00 41 1012.4
20260905202924 37 261 1.6 4.8 0.00 0.00 0.00 39 1012.4
20260905202419 36 315 1.6 1.6 0.00 0.00 0.00 42 1012.4
20260905201914 36 280 3.2 4.8 0.00 0.00 0.00 40 1012.4
20260905201410 37 255 8.0 8.0 0.00 0.00 0.00 40 1012.4
20260905200909 37 290 4.8 6.4 0.00 0.00 0.00 40 1012.4
20260905200405 38 261 6.4 8.0 0.00 0.00 0.00 39 1012.7
20260905195903 38 277 4.8 6.4 0.00 0.00 0.00 38 1012.7
20260905195359 37 303 3.2 4.8 0.00 0.00 0.00 41 1012.7
20260905194854 37 299 4.8 11.3 0.00 0.00 0.00 39 1012.7
20260905194354 37 318 0.0 0.0 0.00 0.00 0.00 40 1013.0
20260905193854 38 187 4.8 6.4 0.00 0.00 0.00 39 1012.7
20260905193348 37 300 3.2 6.4 0.00 0.00 0.00 41 1013.0
20260905192844 37 284 1.6 1.6 0.00 0.00 0.00 40 1013.0
20260905192340 37 244 3.2 6.4 0.00 0.00 0.00 41 1013.0
20260905191839 38 28 4.8 4.8 0.00 0.00 0.00 40 1013.0
20260905191337 37 296 3.2 6.4 0.00 0.00 0.00 40 1013.0
20260905190831 37 289 3.2 6.4 0.00 0.00 0.00 44 1013.0
20260905190331 37 304 8.0 11.3 0.00 0.00 0.00 43 1013.0
20260905185829 36 296 3.2 6.4 0.00 0.00 0.00 44 1013.5
20260905185325 37 255 4.8 6.4 0.00 0.00 0.00 42 1013.0
20260905184824 37 288 3.2 4.8 0.00 0.00 0.00 43 1013.5
20260905184323 37 225 4.8 4.8 0.00 0.00 0.00 42 1013.8
20260905183822 36 305 1.6 4.8 0.00 0.00 0.00 42 1013.8
20260905183318 36 336 4.8 6.4 0.00 0.00 0.00 43 1013.8
20260905182812 36 268 4.8 6.4 0.00 0.00 0.00 42 1013.8
20260905182312 37 292 4.8 6.4 0.00 0.00 0.00 44 1013.8
20260905181807 36 241 3.2 4.8 0.00 0.00 0.00 46 1013.8
20260905181306 36 284 4.8 6.4 0.00 0.00 0.00 44 1013.8
20260905180800 36 290 1.6 1.6 0.00 0.00 0.00 44 1014.2
20260905180255 36 250 3.2 4.8 0.00 0.00 0.00 46 1014.2
20260905175750 36 225 3.2 4.8 0.00 0.00 0.00 46 1013.8
20260905175245 35 323 1.6 1.6 0.00 0.00 0.00 47 1014.2
20260905174740 35 257 3.2 4.8 0.00 0.00 0.00 48 1014.2
20260905174236 35 289 1.6 1.6 0.00 0.00 0.00 48 1014.2
20260905173732 35 310 3.2 4.8 0.00 0.00 0.00 50 1014.5
20260905173227 35 302 1.6 1.6 0.00 0.00 0.00 49 1014.2
20260905172721 35 311 0.0 1.6 0.00 0.00 0.00 48 1014.5
20260905172221 35 312 3.2 4.8 0.00 0.00 0.00 47 1014.5
20260905171716 36 139 3.2 4.8 0.00 0.00 0.00 44 1014.8
20260905171212 36 293 4.8 6.4 0.00 0.00 0.00 43 1014.8
20260905170710 36 327 4.8 6.4 0.00 0.00 0.00 45 1014.8
20260905170210 35 302 0.0 1.6 0.00 0.00 0.00 49 1015.2
20260905165709 35 327 0.0 1.6 0.00 0.00 0.00 49 1014.8
20260905165205 34 335 4.8 4.8 0.00 0.00 0.00 52 1015.2
20260905164659 35 321 3.2 4.8 0.00 0.00 0.00 51 1015.2
20260905164159 35 341 0.0 0.0 0.00 0.00 0.00 50 1014.8
20260905163655 35 343 1.6 1.6 0.00 0.00 0.00 51 1015.2
20260905163151 36 296 1.6 1.6 0.00 0.00 0.00 50 1014.8
20260905162647 35 285 1.6 1.6 0.00 0.00 0.00 48 1015.2
20260905162146 35 298 1.6 1.6 0.00 0.00 0.00 51 1015.2
20260905161641 35 310 1.6 1.6 0.00 0.00 0.00 51 1014.8
20260905161139 35 353 3.2 4.8 0.00 0.00 0.00 52 1015.2
20260905160638 35 310 0.0 0.0 0.00 0.00 0.00 51 1015.2
20260905160132 35 327 3.2 4.8 0.00 0.00 0.00 52 1015.2
20260905155633 35 339 0.0 1.6 0.00 0.00 0.00 53 1015.2
20260905155131 35 26 0.0 1.6 0.00 0.00 0.00 51 1015.2
20260905154626 35 317 0.0 1.6 0.00 0.00 0.00 54 1015.5
20260905154122 35 334 6.4 6.4 0.00 0.00 0.00 53 1015.2
20260905153617 34 320 3.2 4.8 0.00 0.00 0.00 54 1015.5
20260905153112 35 322 0.0 1.6 0.00 0.00 0.00 54 1015.2
20260905152607 34 29 1.6 1.6 0.00 0.00 0.00 53 1015.2
20260905152102 35 290 0.0 1.6 0.00 0.00 0.00 54 1015.2
20260905151557 34 289 0.0 1.6 0.00 0.00 0.00 53 1015.5
20260905151052 33 299 0.0 0.0 0.00 0.00 0.00 57 1015.2
20260905150547 33 231 3.2 4.8 0.00 0.00 0.00 57 1015.5
20260905150045 32 299 0.0 0.0 0.00 0.00 0.00 60 1015.2
20260905145538 32 291 0.0 0.0 0.00 0.00 0.00 60 1015.8
20260905145038 32 295 1.6 1.6 0.00 0.00 0.00 61 1015.5
20260905144533 32 268 1.6 1.6 0.00 0.00 0.00 62 1015.2
20260905144032 32 319 0.0 0.0 0.00 0.00 0.00 64 1015.5
20260905143531 31 282 1.6 1.6 0.00 0.00 0.00 64 1015.2
20260905143027 32 274 1.6 1.6 0.00 0.00 0.00 63 1015.5
20260905142525 31 306 0.0 0.0 0.00 0.00 0.00 64 1015.5
20260905142021 31 325 3.2 4.8 0.00 0.00 0.00 68 1015.5
20260905141515 30 278 3.2 4.8 0.00 0.00 0.00 67 1015.5
20260905141012 30 312 1.6 1.6 0.00 0.00 0.00 66 1015.5
20260905140506 31 306 1.6 1.6 0.00 0.00 0.00 66 1015.5
20260905140005 30 332 0.0 0.0 0.00 0.00 0.00 68 1015.5
20260905135501 30 320 3.2 4.8 0.00 0.00 0.00 67 1015.8
20260905134956 30 294 1.6 1.6 0.00 0.00 0.00 66 1015.5
20260905134455 31 319 0.0 0.0 0.00 0.00 0.00 65 1015.5
20260905133954 30 319 0.0 0.0 0.00 0.00 0.00 70 1015.5
20260905133444 30 319 1.6 1.6 0.00 0.00 0.00 71 1015.8
20260905132943 29 319 0.0 0.0 0.00 0.00 0.00 74 1015.8
20260905132438 28 319 0.0 0.0 0.00 0.00 0.00 75 1015.8
20260905131933 28 315 1.6 1.6 0.00 0.00 0.00 74 1015.8
20260905131430 28 306 0.0 0.0 0.00 0.00 0.00 75 1015.5
20260905130929 28 330 0.0 0.0 0.00 0.00 0.00 79 1015.8
20260905130424 27 331 0.0 0.0 0.00 0.00 0.00 83 1015.8
20260905125923 27 344 0.0 0.0 0.00 0.00 0.00 88 1015.5
20260905125418 27 344 0.0 0.0 0.00 0.00 0.00 92 1015.5
20260905124914 26 345 0.0 0.0 0.00 0.00 0.00 92 1015.8
20260905124411 25 345 0.0 0.0 0.00 0.00 0.00 93 1015.8
20260905123910 25 345 0.0 0.0 0.00 0.00 0.00 93 1015.8
20260905123407 25 345 0.0 0.0 0.00 0.00 0.00 93 1015.8
20260905122902 25 345 0.0 0.0 0.00 0.00 0.00 93 1015.8
20260905122401 25 345 0.0 0.0 0.00 0.00 0.00 93 1015.8
20260905121857 24 345 0.0 0.0 0.00 0.00 0.00 93 1015.5
20260905121353 23 345 0.0 0.0 0.00 0.00 0.00 93 1015.5
20260905120852 23 346 0.0 0.0 0.00 0.00 0.00 93 1015.5
20260905120346 23 346 0.0 0.0 0.00 0.00 0.00 93 1015.5
20260905115842 23 346 0.0 0.0 0.00 0.00 0.00 93 1015.5
20260905115340 23 346 0.0 0.0 0.00 0.00 0.00 93 1015.2
20260905114835 23 346 0.0 0.0 0.00 0.00 0.00 93 1015.2
20260905114334 23 345 0.0 0.0 0.00 0.00 0.00 93 1015.2
20260905113834 23 345 0.0 0.0 0.00 0.00 0.00 93 1015.2
20260905113330 23 345 0.0 0.0 0.00 0.00 0.00 92 1015.2